COSMOS 2251 DEB, 33805

Orbit data source: Space-Track

COSMOS 2251 DEB, 33805 is space debris in LEO originally from a launch on Wed, 16 Jun 1993 UTC launched from the Plesetsk Missile And Space Complex (PKMTR). The debris from Iridium 33, an American commercial communications satellite, has been tracked extensively since its accidental collision with the defunct Russian satellite Cosmos 2251 in 2009. This event, occurring at high speed in low Earth orbit (LEO), generated thousands of pieces of space debris, significantly increasing the risk of further collisions. The Iridium 33 debris cloud has impacted space traffic management and orbital debris mitigation strategies, making it a subject of ongoing study in space situational awareness.

Loading next visibility...
Identifier
33805, 1993-036AW
Orbit
LEO
Country
Flag of CISCIS
Related business
Manufacturer
Unknown
Mission
Spacecraft
Bus & Motor
Unknown
Mass
Unknown
Launch date (UTC)
1993-06-16 (33 years ago)
Launch vehicle
Unknown
Launch site
Plesetsk Missile And Space Complex (PKMTR)
Object type
Payload
Rocket body
Debris
Shape & HBR
Unknown shape, 0.3 m
Radar Cross Section
Medium (>0.1 m² and <1 m²)

Expand to show TLE details & history
Last TLE update: 21 hours ago

TLE from 21 hours ago
0 COSMOS 2251 DEB
1 33805U 93036AW  26235.60177583  .00000872  00000-0  19000-3 0  9995
2 33805  74.0305 188.1629 0061791 311.0154  48.5677 14.58384510929279
Epoch: 2026-08-23T14:26Z
TLE epoch observation values (Epoch: 2026-08-23T14:26:33.431Z)
Latitude
-0.00001°
Longitude
-0.37188°
Altitude
672.246 km
Speed
7.536 km/s
True Right ascension
12h 32m 39s
True Declination
0° 00' 00"
Sunlit
Object was in daylight at epoch
Visualization orbit readout
Latitude
Unknown
Longitude
Unknown
Altitude
Unknown
Speed
Unknown
Apparent Right ascension
Unknown
Apparent Declination
Unknown
Sunlit
N/A
Visualization observer readout
Local Sidereal Time
02:10:54
Azimuth
Unknown
Elevation
Unknown
Doppler factor
Unknown
Orbital elements
Apogee altitude
739.706 km
Perigee altitude
652.283 km
Semi-major axis
7,074.132 km
Eccentricity
0.00618
Inclination
74.0305°
RAAN
188.1629°
Arg. of periapsis
311.0154°
True anomaly
49.10129°
Mean anomaly
48.5677°
Eccentric anomaly
48.83422°
Mean motion
3.64782 °/min
Orbital period
98.69 mins
BSTAR
0.00019
Loading maneuver chart data...
Computing Atmospheric mass density...

Documentation

Showing up to 5 results
|